Regional Weather Roundup
Issued by NWS Northern Indiana

Home | Current Version | Previous Version | Text Only | Print | Product List | Glossary Off
Versions: 1 2 3 4 5 6 7 8 9 10 11 12 13 14 15 16 17 18 19 20 21 22 23 24 25 26 27 28 29 30 31 32 33 34 35 36 37 38 39 40 41 42 43 44 45 46 47 48 49 50

000
ASUS43 KIWX 081010
RWRIWX

KIWX WEATHER ROUNDUP
NATIONAL WEATHER SERVICE NORTHERN INDIANA
500 AM EST THU DEC 08 2016

NOTE: "FAIR" INDICATES FEW OR NO CLOUDS BELOW 12,000 FEET WITH NO
SIGNIFICANT WEATHER AND/OR OBSTRUCTIONS TO VISIBILITY.

* THESE STATIONS ARE NOT UNDER NWS QUALITY CONTROL. THEY ALSO MAY NOT
  REPORT WEATHER SUCH AS PRECIPITATION OR FOG.

INZ001>027-081100-
NORTHERN INDIANA

CITY           SKY/WX    TMP DP  RH WIND       PRES   REMARKS
VALPARAISO     FLURRIES  23  15  71 W18G24    30.16F WCI   9
MICHIGAN CITY* FLURRIES  25  18  74 SW10G17   30.15S WCI  15
LAPORTE*       CLOUDY    23  14  70 W13G18    30.15S WCI  11
KNOX*          CLOUDY    23  -2  33 W18G30    30.17S WCI   9
SOUTH BEND     CLOUDY    22  16  78 W15       30.12F WCI   9
GOSHEN         FLURRIES  24  14  65 W21       30.12S WCI   9
MONTICELLO*    CLOUDY    24  13  64 W12G21    30.19F WCI  13
LOGANSPORT*    CLOUDY    23  16  74 W16G24    30.20S WCI  10
ROCHESTER*     MOCLDY    27  19  74 W14G20    30.16S WCI  15
WARSAW*        CLOUDY    23  12  63 W18G24    30.14S WCI   9
ANGOLA*        CLOUDY    23  18  80 W12       30.07S WCI  12
FORT WAYNE     CLOUDY    24  16  71 W18       30.13F WCI  10
HUNTINGTON*    CLOUDY    24  16  71 W13       30.15S WCI  12
PERU/GRISSOM   CLOUDY    23  16  74 W20       30.15F WCI   8
MARION*        CLOUDY    23  17  77 W20G28    30.18S WCI   9

$$
INZ028>050-081100-
CENTRAL INDIANA

CITY           SKY/WX    TMP DP  RH WIND       PRES   REMARKS
LAFAYETTE      CLOUDY    23  15  71 W18       30.22F WCI   9
KOKOMO*        FLURRIES  24  17  74 W21       30.18S WCI   9
MUNCIE*        CLOUDY    25  16  68 W15G26    30.17S WCI  13
INDIANAPOLIS   MOCLDY    24  15  68 W16       30.22S WCI  11

$$
MIZ043>046-050>051-056>058-064>065-071>073-077>080-081100-
SOUTHWEST LOWER MICHIGAN

CITY           SKY/WX    TMP DP  RH WIND       PRES   REMARKS
BATTLE CREEK   CLOUDY    27  19  72 W17G30    30.03F WCI  14
BENTON HARBOR  CLOUDY    27  17  66 W21G29    30.10F WCI  13
COLDWATER*     CLOUDY    25  19  75 W16       30.05F WCI  13
HILLSDALE*     CLOUDY    25  18  74 W18G29    30.01F WCI  11
HOLLAND        FLURRIES  27  19  72 W17G25    30.05F WCI  14
GRAND RAPIDS   CLOUDY    26  18  71 W22G29    30.02S WCI  12
KALAMAZOO      CLOUDY    27  17  66 W16G25    30.05F WCI  15
STURGIS*       CLOUDY    23  17  76 W13       30.07S WCI  12
THREE RIVERS*  CLOUDY    25  19  77 SW7G16    30.08S WCI  17

$$
OHZ001>008-015>018-024>025-081100-
NORTHWEST OHIO

CITY           SKY/WX    TMP DP  RH WIND       PRES   REMARKS
WAUSEON*       CLOUDY    27  19  74 W18G26    30.05S WCI  13
DEFIANCE       CLOUDY    26  15  63 W12G18    30.10F WCI  16
FINDLAY        CLOUDY    27  17  66 W18       30.08S WCI  14
TOLEDO EXPRESS CLOUDY    26  19  74 W16       30.06F WCI  14
TOLEDO METCALF CLOUDY    27  19  72 W17G25    30.07S WCI  14
LIMA           CLOUDY    24  18  77 W16G25    30.10S WCI  11

$$
AND FOR LAKE MICHIGAN COASTAL AND OPEN LAKE BUOY OBSERVATIONS

STATION/POSITION TEMP    WIND        PRES    VSBY  WAVE
                 AIR SEA DIR/SP/G                  HT/PER
                 (F)     (DEG/KT/KT) (MB)    (MI)  (FT/S)

$$
&&



USA.gov is the U.S. government's official web portal to all federal, state and local government web resources and services.